STARLINK-1068 (44772 NORAD) Tracking and Keplerian Element Data

This shows tracking and keplerian element data for the satellite.

Feedback or suggestion? Click here.




ElementValue
Catalog44772
NameSTARLINK-1068
Epoch Orbit2207
Epoch Day93.91667824
Epoch Year2020
RAAN213.6358
Inclination52.9988
Eccentricity0.0001629
Argument of Perigee110.1591
Mean Anonmoly290.2244
Mean Motion15.05578722
Decay Rate-0.00024166
L11 44772U 19074BM 20093.91667824 -.00024166 00000-0 -16451-2 0 9992
L22 44772 52.9988 213.6358 0001629 110.1591 290.2244 15.05578722 22077

Live tracking and technical data element details for STARLINK-1068 (NORAD 44772). STARLINK-1068 can be tracked NOW for your location showing map with azimuth and elevation plus other details from your city location.

Track the satellite on the map from your city or location and see movement details for azimuth, elevation, latitude, longitude, range, height, and movement on the map or in text.







IsCatalogInMostPopularTable: catalog: 44772, numindb: 86
Update: records affected: 1



GetName: 44772 STARLINK-1068

Hit Count: updated at: Sat, 04 Apr 2020 00:02:12 GMT